User: anonymous   Login
Location: Unspecified
(50.1330°N, 0.0000°E)
Time: 07:18:31
(UTC+00:00)
Language:

NOSS 2-3 (C) - Orbit

View from above orbital plane
View from above orbital plane
View from above satellite
View from above satellite

Ground track
Ground track

The orbit is defined by the following mean orbital elements,

1 23908U          26088.20332308 +.00000000 +00000-0 +63390-3 0 00004
2 23908  63.3214  40.8745 0847504  48.2447 318.7936 13.45980910    05
Epoch (UTC): 29 March 2026 04:52:47
Eccentricity: 0.0847504
inclination: 63.3214°
perigee height: 454 km
apogee height: 1720 km
right ascension of ascending node: 40.8745°
argument of perigee: 48.2447°
revolutions per day: 13.45980910
mean anomaly at epoch: 318.7936°

The dashed part of the orbit path shows where the satellite is in the earth's shadow,  

DLR